Location: Unspecified
(0.0000°N, 0.0000°E)
Time: 06:28:09
(UTC+00:00)

Hubble Space Telescope - Pass Details

Date: 24 November 2020
Orbit: 536 x 540 km, 28.5° (Epoch: 03 December)

Event Time Altitude Azimuth Distance (km) Brightness Sun altitude
Rises 19:32:04 0° 264° (W) 2,665 5.5 -24.5°
Reaches altitude 10° 19:34:43 10° 280° (W) 1,773 4.1 -25.1°
Enters shadow 19:37:24 21° 320° (NW) 1,217 2.7 -25.7°
